GFSMW_500_temp_333.txt.gz
Temp
-17 -15 -14 -15 -16 -17 -14 -12 -12 -13 -13 -12 -12 -12 -12 -11 -11 -11 -12 -11 -10 -9 -9 -9 -9 -10 -10 -10 -10 -9 -10 -10 -10 -10 -9 -9 -9 -9 -9 -10 -10 -10 -10
-17 -15 -15 -15 -16 -15 -14 -12 -12 -13 -13 -13 -13 -12 -12 -12 -11 -11 -11 -11 -10 -10 -10 -10 -9 -9 -10 -10 -10 -10 -10 -10 -10 -10 -10 -9 -9 -9 -10 -10 -10 -10 -10
-17 -16 -15 -15 -16 -16 -14 -12 -12 -13 -13 -13 -13 -12 -12 -11 -12 -12 -12 -12 -11 -11 -9 -10 -10 -9 -10 -10 -10 -10 -10 -10 -10 -10 -10 -10 -9 -9 -10 -10 -10 -10 -10
-17 -16 -15 -15 -15 -15 -13 -13 -12 -12 -13 -13 -13 -13 -12 -12 -12 -13 -12 -11 -12 -11 -10 -10 -10 -10 -10 -10 -9 -10 -9 -9 -10 -10 -10 -10 -9 -10 -10 -10 -10 -10 -10
-18 -18 -17 -16 -16 -15 -14 -14 -13 -12 -13 -13 -13 -12 -12 -11 -12 -12 -12 -12 -12 -11 -12 -12 -11 -10 -10 -10 -10 -10 -10 -10 -10 -10 -10 -10 -10 -9 -10 -10 -10 -10 -10
-18 -17 -17 -16 -16 -15 -14 -14 -13 -13 -13 -13 -13 -13 -12 -11 -12 -12 -12 -12 -12 -12 -11 -11 -11 -11 -10 -10 -10 -10 -10 -10 -10 -10 -10 -10 -10 -10 -10 -10 -10 -10 -10
-19 -18 -17 -16 -16 -16 -15 -14 -13 -13 -13 -13 -13 -13 -13 -13 -13 -12 -12 -12 -12 -11 -11 -12 -12 -11 -10 -10 -10 -12 -12 -11 -11 -10 -10 -10 -10 -10 -10 -10 -10 -10 -10
-20 -19 -17 -17 -16 -16 -15 -15 -13 -14 -13 -13 -13 -13 -13 -13 -13 -13 -12 -12 -12 -12 -11 -11 -11 -11 -11 -10 -10 -13 -13 -12 -11 -11 -10 -11 -10 -10 -10 -10 -10 -10 -10
-20 -20 -19 -17 -16 -16 -16 -15 -13 -14 -15 -15 -14 -12 -13 -13 -13 -13 -13 -12 -12 -11 -11 -11 -11 -11 -10 -10 -11 -13 -12 -11 -11 -11 -11 -11 -10 -10 -11 -11 -10 -10 -11
-21 -20 -20 -19 -17 -16 -16 -15 -14 -15 -14 -14 -14 -14 -12 -13 -13 -13 -13 -13 -13 -12 -11 -11 -11 -11 -11 -11 -12 -12 -11 -11 -11 -11 -11 -11 -11 -10 -10 -11 -10 -10 -10
-21 -21 -21 -20 -19 -17 -16 -15 -15 -15 -14 -14 -14 -14 -14 -13 -13 -13 -13 -13 -13 -12 -12 -11 -11 -11 -11 -11 -12 -12 -11 -11 -12 -11 -12 -11 -11 -11 -11 -11 -11 -11 -11
-21 -21 -21 -21 -20 -18 -17 -16 -15 -15 -15 -14 -14 -14 -14 -14 -13 -13 -13 -12 -13 -13 -12 -12 -11 -11 -11 -11 -11 -11 -11 -11 -11 -12 -11 -12 -12 -11 -11 -11 -11 -11 -11
-21 -21 -21 -21 -21 -20 -18 -17 -17 -16 -15 -15 -14 -14 -15 -14 -14 -13 -13 -12 -13 -13 -12 -12 -12 -12 -11 -11 -11 -12 -11 -11 -11 -11 -12 -12 -12 -11 -11 -11 -11 -11 -11
-22 -21 -21 -21 -21 -21 -20 -18 -18 -17 -16 -15 -14 -15 -15 -14 -14 -14 -13 -12 -13 -13 -13 -12 -12 -12 -12 -11 -11 -11 -11 -11 -12 -12 -12 -12 -12 -12 -11 -11 -12 -11 -11
-22 -22 -21 -21 -21 -21 -20 -19 -18 -17 -17 -16 -15 -15 -15 -15 -14 -14 -14 -13 -13 -13 -13 -13 -13 -13 -12 -12 -12 -11 -11 -11 -12 -12 -12 -12 -12 -12 -12 -12 -12 -12 -12
-22 -22 -22 -21 -21 -21 -20 -19 -18 -17 -17 -16 -16 -15 -15 -15 -14 -15 -14 -13 -13 -13 -12 -12 -12 -13 -12 -12 -12 -12 -12 -12 -12 -12 -12 -12 -12 -12 -12 -12 -12 -12 -12
-24 -23 -22 -21 -20 -20 -20 -20 -18 -17 -16 -17 -15 -16 -16 -16 -14 -14 -12 -13 -13 -13 -13 -13 -12 -13 -13 -13 -13 -13 -12 -12 -12 -12 -12 -12 -12 -12 -12 -12 -12 -13 -13
-26 -26 -25 -22 -21 -21 -21 -21 -19 -17 -17 -16 -16 -16 -16 -15 -15 -14 -13 -12 -13 -12 -13 -13 -12 -13 -13 -13 -13 -13 -13 -13 -13 -13 -13 -13 -13 -13 -13 -13 -13 -13 -13
-26 -25 -25 -25 -24 -23 -22 -21 -19 -18 -17 -16 -16 -16 -15 -15 -15 -15 -14 -14 -13 -13 -13 -13 -13 -13 -13 -13 -14 -14 -13 -13 -13 -13 -14 -14 -14 -14 -14 -13 -14 -13 -13
-26 -26 -25 -25 -25 -25 -22 -22 -21 -19 -19 -18 -17 -16 -16 -15 -14 -15 -14 -14 -14 -13 -12 -14 -13 -13 -13 -13 -14 -14 -14 -14 -14 -14 -14 -14 -14 -14 -14 -14 -14 -13 -14
-27 -27 -26 -25 -25 -25 -24 -23 -20 -21 -21 -20 -19 -17 -16 -15 -15 -15 -15 -14 -13 -14 -12 -13 -14 -14 -14 -14 -14 -14 -14 -14 -14 -14 -14 -14 -14 -14 -13 -14 -15 -14 -14
-28 -27 -27 -26 -25 -25 -25 -23 -21 -20 -19 -20 -19 -18 -17 -15 -16 -15 -15 -16 -14 -13 -13 -12 -13 -14 -14 -14 -15 -15 -14 -14 -14 -14 -14 -15 -14 -15 -15 -14 -14 -14 -14
-27 -27 -27 -26 -25 -25 -26 -25 -22 -21 -21 -20 -19 -18 -17 -17 -16 -15 -14 -13 -14 -14 -14 -13 -14 -13 -11 -14 -15 -15 -15 -15 -15 -15 -15 -15 -15 -15 -15 -15 -15 -14 -14
-27 -27 -26 -26 -25 -25 -25 -25 -24 -21 -20 -20 -19 -19 -18 -18 -17 -16 -16 -16 -15 -15 -15 -14 -14 -14 -14 -13 -14 -15 -15 -15 -16 -16 -16 -16 -16 -15 -15 -15 -15 -15 -14
-27 -26 -26 -26 -26 -24 -24 -25 -24 -23 -21 -20 -20 -20 -19 -18 -17 -17 -16 -16 -15 -15 -15 -15 -14 -14 -14 -15 -15 -14 -15 -16 -16 -16 -16 -16 -16 -15 -15 -15 -15 -15 -15
-29 -27 -26 -25 -25 -25 -24 -24 -24 -23 -23 -21 -20 -19 -19 -18 -18 -18 -18 -17 -16 -16 -16 -17 -16 -15 -16 -15 -16 -15 -15 -15 -16 -16 -16 -16 -16 -15 -16 -15 -15 -15 -15

GFSMW_500_temp_339.txt.gz
Temp
-17 -17 -16 -16 -15 -16 -15 -14 -13 -12 -13 -13 -12 -12 -12 -12 -11 -11 -11 -11 -10 -10 -10 -10 -9 -9 -9 -10 -10 -10 -10 -10 -10 -10 -10 -10 -10 -10 -10 -10 -10 -10 -10
-19 -18 -18 -17 -16 -16 -16 -15 -14 -13 -12 -13 -13 -12 -12 -12 -12 -12 -12 -11 -10 -11 -10 -10 -10 -9 -9 -10 -10 -10 -10 -10 -10 -10 -10 -10 -10 -10 -10 -10 -10 -10 -10
-19 -19 -19 -18 -17 -16 -16 -16 -15 -14 -13 -13 -13 -12 -12 -12 -12 -12 -12 -11 -11 -11 -11 -11 -11 -10 -10 -10 -10 -10 -10 -10 -11 -10 -10 -10 -10 -10 -10 -10 -10 -10 -10
-20 -19 -19 -19 -18 -17 -17 -16 -15 -15 -14 -13 -13 -13 -11 -12 -12 -13 -12 -12 -11 -12 -11 -11 -10 -10 -10 -10 -10 -10 -10 -10 -10 -11 -10 -10 -10 -10 -10 -10 -10 -10 -10
-21 -20 -19 -19 -18 -18 -17 -17 -16 -15 -14 -14 -13 -13 -13 -12 -12 -12 -12 -12 -12 -12 -11 -11 -11 -10 -10 -10 -10 -10 -10 -10 -10 -10 -10 -11 -10 -11 -10 -10 -10 -11 -10
-22 -21 -20 -20 -19 -19 -18 -18 -17 -15 -15 -14 -14 -14 -14 -13 -12 -12 -12 -12 -12 -12 -12 -12 -11 -11 -11 -10 -10 -10 -10 -10 -10 -10 -10 -10 -11 -11 -11 -10 -10 -10 -10
-23 -22 -21 -20 -20 -19 -19 -18 -18 -16 -15 -15 -15 -14 -14 -13 -13 -12 -12 -12 -12 -13 -12 -13 -12 -11 -11 -10 -11 -11 -10 -11 -11 -11 -10 -11 -11 -11 -11 -10 -10 -10 -10
-23 -23 -22 -21 -20 -19 -19 -19 -18 -17 -16 -15 -15 -15 -14 -13 -13 -12 -12 -12 -12 -13 -12 -12 -13 -12 -11 -11 -11 -10 -10 -11 -11 -11 -10 -10 -10 -12 -11 -11 -11 -11 -10
-24 -23 -22 -21 -21 -20 -19 -19 -19 -18 -17 -16 -15 -15 -15 -14 -12 -13 -13 -13 -12 -12 -12 -12 -12 -12 -12 -11 -12 -11 -10 -10 -10 -10 -10 -10 -11 -12 -11 -11 -11 -11 -11
-25 -24 -23 -22 -22 -20 -19 -19 -19 -18 -17 -17 -16 -15 -15 -15 -14 -14 -14 -13 -13 -13 -12 -12 -12 -12 -12 -12 -12 -11 -11 -10 -10 -11 -10 -11 -10 -12 -13 -11 -11 -11 -12
-26 -24 -24 -24 -23 -21 -20 -19 -19 -19 -18 -18 -17 -16 -16 -15 -14 -13 -13 -13 -13 -12 -13 -13 -12 -12 -13 -12 -12 -12 -11 -11 -12 -11 -11 -11 -10 -13 -12 -11 -12 -13 -12
-27 -26 -24 -24 -24 -22 -21 -20 -19 -19 -18 -18 -18 -17 -16 -16 -15 -14 -12 -14 -13 -13 -13 -13 -11 -11 -12 -12 -12 -11 -12 -11 -12 -12 -11 -11 -11 -14 -13 -13 -14 -12 -12
-27 -27 -25 -24 -24 -23 -22 -21 -20 -19 -18 -18 -18 -18 -17 -16 -16 -15 -14 -14 -14 -14 -14 -13 -11 -13 -12 -12 -12 -12 -11 -11 -12 -12 -11 -11 -11 -14 -14 -14 -13 -12 -12
-28 -27 -27 -25 -24 -23 -22 -21 -21 -19 -19 -18 -18 -18 -18 -17 -17 -16 -16 -16 -13 -14 -14 -14 -13 -13 -12 -11 -12 -12 -11 -11 -11 -12 -11 -12 -12 -13 -14 -13 -13 -12 -12
-28 -27 -27 -26 -24 -23 -23 -21 -21 -20 -19 -18 -18 -18 -18 -18 -18 -16 -16 -17 -15 -15 -13 -14 -14 -13 -12 -13 -12 -12 -12 -12 -12 -12 -12 -12 -13 -13 -13 -13 -12 -12 -12
-28 -28 -27 -26 -25 -23 -22 -21 -20 -20 -20 -19 -19 -18 -18 -18 -18 -18 -17 -17 -16 -16 -15 -14 -14 -13 -13 -12 -12 -12 -12 -13 -12 -12 -12 -12 -13 -13 -13 -13 -12 -12 -12
-28 -28 -27 -27 -25 -23 -22 -21 -21 -21 -20 -21 -19 -19 -19 -18 -18 -17 -17 -17 -17 -16 -15 -14 -13 -14 -14 -14 -11 -12 -12 -12 -13 -13 -12 -12 -12 -13 -13 -13 -13 -13 -13
-28 -28 -27 -27 -26 -24 -23 -22 -21 -21 -21 -21 -20 -20 -20 -20 -19 -18 -17 -16 -16 -16 -16 -15 -14 -14 -13 -14 -13 -11 -13 -12 -12 -13 -13 -12 -12 -12 -13 -13 -13 -13 -13
-28 -27 -27 -27 -26 -25 -24 -23 -22 -21 -21 -21 -20 -20 -20 -20 -20 -18 -17 -16 -15 -15 -15 -15 -15 -13 -14 -14 -13 -13 -13 -12 -13 -13 -13 -13 -13 -13 -13 -13 -13 -13 -13
-29 -28 -27 -27 -26 -26 -25 -24 -22 -22 -21 -21 -20 -20 -20 -19 -19 -19 -17 -16 -15 -16 -15 -14 -15 -15 -14 -14 -14 -14 -14 -13 -12 -13 -13 -13 -13 -13 -13 -13 -12 -12 -12
-29 -28 -28 -27 -26 -26 -25 -24 -22 -21 -21 -21 -20 -20 -20 -20 -20 -19 -18 -17 -16 -16 -15 -15 -15 -14 -15 -15 -14 -14 -13 -13 -13 -13 -13 -13 -13 -13 -13 -13 -14 -13 -14
-30 -28 -28 -28 -27 -26 -26 -25 -24 -23 -21 -21 -21 -21 -20 -20 -20 -19 -18 -18 -17 -16 -15 -15 -15 -15 -15 -14 -14 -15 -14 -14 -13 -12 -13 -13 -13 -16 -15 -14 -15 -14 -14
-31 -29 -28 -27 -27 -27 -26 -26 -25 -25 -23 -22 -21 -21 -21 -20 -19 -19 -19 -17 -17 -16 -16 -16 -15 -16 -15 -14 -14 -14 -15 -14 -13 -13 -13 -13 -13 -15 -14 -14 -14 -14 -14
-32 -31 -29 -28 -27 -27 -26 -26 -26 -26 -25 -23 -22 -22 -22 -21 -21 -20 -19 -18 -17 -16 -16 -15 -15 -15 -15 -15 -14 -14 -14 -15 -14 -14 -14 -13 -13 -14 -15 -15 -14 -14 -14
-32 -31 -31 -29 -28 -27 -26 -26 -25 -26 -25 -25 -24 -23 -23 -22 -21 -21 -20 -19 -18 -17 -16 -16 -16 -15 -15 -15 -15 -15 -14 -14 -15 -15 -14 -14 -12 -13 -14 -15 -15 -14 -14
-31 -31 -31 -31 -29 -27 -26 -26 -25 -25 -25 -25 -25 -24 -24 -23 -22 -22 -21 -20 -21 -20 -18 -17 -16 -16 -15 -15 -15 -15 -15 -14 -15 -15 -14 -14 -14 -14 -14 -14 -14 -14 -14

GFSMW_500_temp_345.txt.gz
Temp
-18 -18 -17 -17 -17 -17 -16 -16 -16 -15 -15 -14 -14 -13 -13 -13 -13 -12 -12 -11 -11 -11 -11 -10 -10 -10 -10 -10 -9 -9 -9 -10 -9 -9 -9 -10 -9 -10 -10 -10 -10 -10 -10
-19 -19 -18 -18 -18 -18 -17 -17 -16 -16 -15 -15 -14 -13 -13 -14 -13 -13 -12 -12 -11 -11 -11 -11 -10 -10 -10 -10 -10 -9 -9 -10 -9 -9 -10 -10 -10 -10 -10 -10 -10 -10 -10
-20 -20 -19 -19 -18 -19 -18 -17 -17 -16 -16 -15 -15 -14 -13 -14 -14 -13 -13 -13 -12 -12 -11 -11 -11 -10 -10 -10 -10 -10 -9 -9 -9 -10 -10 -10 -10 -10 -10 -10 -10 -10 -10
-21 -21 -20 -20 -19 -19 -19 -19 -17 -17 -16 -16 -15 -15 -14 -13 -14 -13 -13 -13 -12 -12 -12 -11 -11 -10 -10 -10 -10 -10 -10 -10 -10 -10 -10 -10 -10 -11 -10 -10 -10 -10 -10
-23 -22 -21 -21 -20 -20 -20 -20 -19 -17 -17 -16 -16 -15 -14 -14 -14 -14 -14 -13 -13 -12 -12 -12 -11 -11 -11 -11 -10 -10 -10 -10 -10 -10 -10 -10 -10 -10 -10 -10 -10 -10 -10
-25 -24 -22 -22 -21 -20 -20 -20 -20 -18 -17 -16 -16 -15 -15 -15 -14 -14 -14 -14 -13 -13 -12 -12 -10 -11 -10 -10 -10 -10 -10 -10 -10 -10 -10 -10 -10 -11 -11 -10 -10 -10 -10
-28 -26 -24 -22 -22 -21 -20 -20 -20 -19 -18 -17 -16 -16 -15 -15 -14 -14 -14 -14 -14 -13 -13 -12 -12 -11 -11 -11 -11 -10 -11 -10 -10 -10 -10 -10 -10 -10 -11 -10 -10 -10 -10
-28 -28 -27 -24 -23 -22 -21 -21 -20 -20 -19 -18 -17 -17 -16 -16 -15 -15 -15 -14 -14 -14 -13 -13 -12 -11 -12 -11 -11 -11 -11 -11 -11 -10 -10 -10 -10 -10 -11 -11 -10 -10 -10
-29 -28 -28 -26 -24 -23 -22 -21 -21 -21 -20 -19 -18 -17 -17 -17 -16 -15 -15 -15 -14 -14 -14 -14 -13 -13 -12 -12 -11 -11 -11 -11 -10 -11 -10 -10 -10 -11 -11 -11 -10 -11 -11
-29 -29 -28 -27 -26 -24 -23 -22 -22 -21 -21 -20 -19 -18 -18 -18 -17 -15 -15 -15 -14 -14 -14 -13 -13 -13 -12 -11 -11 -11 -11 -11 -11 -11 -10 -10 -10 -11 -11 -11 -11 -11 -11
-29 -29 -29 -28 -27 -26 -24 -23 -22 -22 -21 -20 -20 -19 -18 -19 -18 -16 -15 -15 -15 -14 -13 -13 -13 -12 -12 -12 -11 -11 -11 -12 -11 -10 -10 -10 -10 -11 -11 -11 -11 -11 -11
-30 -29 -29 -28 -28 -27 -25 -24 -23 -22 -22 -21 -20 -19 -19 -19 -19 -17 -16 -16 -15 -14 -15 -13 -13 -13 -13 -12 -12 -12 -12 -12 -11 -11 -11 -11 -11 -11 -11 -11 -11 -11 -11
-30 -29 -29 -29 -28 -28 -27 -25 -24 -23 -22 -21 -21 -20 -19 -19 -19 -18 -17 -16 -16 -15 -15 -14 -14 -13 -13 -13 -12 -12 -12 -12 -12 -12 -11 -11 -11 -11 -11 -11 -11 -11 -11
-30 -30 -29 -29 -29 -28 -27 -26 -24 -23 -23 -22 -21 -21 -20 -19 -19 -19 -18 -17 -17 -16 -16 -16 -14 -14 -13 -12 -13 -12 -13 -12 -12 -13 -12 -12 -11 -11 -11 -11 -11 -11 -11
-31 -30 -29 -29 -29 -28 -28 -27 -26 -24 -23 -23 -22 -21 -20 -20 -19 -19 -18 -17 -17 -17 -16 -16 -15 -15 -14 -14 -14 -13 -12 -12 -12 -13 -13 -12 -12 -11 -12 -11 -11 -11 -11
-31 -30 -30 -29 -29 -28 -28 -27 -26 -25 -24 -23 -23 -22 -21 -20 -19 -19 -19 -18 -17 -17 -17 -16 -17 -15 -14 -13 -13 -13 -13 -12 -12 -13 -12 -12 -13 -13 -12 -12 -12 -12 -11
-32 -31 -30 -29 -29 -28 -28 -27 -27 -25 -25 -24 -23 -22 -22 -21 -20 -19 -19 -19 -18 -18 -17 -16 -16 -16 -16 -14 -13 -13 -12 -13 -13 -13 -13 -13 -13 -12 -11 -13 -13 -13 -12
-33 -31 -30 -30 -29 -28 -28 -28 -27 -26 -25 -24 -24 -24 -22 -21 -21 -20 -20 -19 -19 -18 -18 -17 -17 -16 -16 -15 -14 -14 -13 -13 -12 -13 -13 -13 -13 -13 -13 -12 -12 -13 -13
-33 -32 -30 -29 -29 -28 -28 -28 -27 -27 -26 -24 -24 -24 -23 -22 -21 -20 -20 -19 -20 -19 -19 -18 -18 -17 -16 -16 -15 -14 -14 -13 -14 -13 -13 -13 -12 -13 -12 -12 -13 -13 -12
-32 -33 -31 -29 -29 -28 -28 -28 -27 -27 -26 -25 -24 -24 -23 -22 -22 -21 -20 -19 -20 -20 -19 -19 -19 -18 -17 -17 -18 -17 -15 -14 -14 -13 -13 -13 -13 -13 -13 -13 -13 -13 -13
-32 -32 -32 -31 -29 -28 -28 -28 -27 -27 -26 -26 -25 -24 -23 -23 -22 -22 -21 -20 -19 -20 -20 -19 -19 -19 -18 -18 -18 -18 -18 -16 -15 -15 -13 -13 -13 -13 -13 -13 -13 -13 -13
-32 -32 -32 -32 -30 -29 -28 -28 -27 -27 -26 -26 -25 -24 -23 -23 -22 -22 -22 -21 -20 -19 -20 -19 -19 -19 -18 -18 -18 -17 -17 -17 -17 -17 -16 -14 -14 -13 -13 -13 -13 -13 -13
-31 -32 -32 -32 -31 -29 -28 -28 -27 -27 -26 -26 -26 -25 -24 -23 -23 -22 -22 -21 -21 -20 -20 -20 -19 -19 -18 -18 -18 -17 -16 -17 -17 -16 -17 -17 -17 -14 -13 -13 -13 -13 -14
-31 -31 -31 -31 -31 -31 -29 -28 -28 -27 -27 -26 -26 -25 -24 -24 -24 -23 -22 -21 -21 -20 -20 -20 -20 -20 -19 -18 -18 -17 -17 -16 -17 -16 -15 -15 -15 -16 -15 -14 -14 -14 -13
-30 -30 -31 -31 -31 -31 -30 -29 -28 -27 -27 -26 -26 -25 -25 -24 -24 -23 -22 -21 -21 -20 -20 -20 -20 -20 -19 -19 -18 -18 -17 -17 -16 -16 -15 -15 -15 -16 -16 -16 -16 -15 -15
-29 -29 -30 -30 -30 -30 -30 -30 -28 -28 -27 -26 -26 -26 -25 -24 -24 -23 -23 -22 -21 -21 -20 -20 -20 -20 -20 -19 -19 -18 -17 -17 -16 -15 -16 -15 -15 -15 -15 -15 -15 -15 -16

GFSMW_500_temp_348.txt.gz
Temp
-18 -18 -17 -17 -17 -16 -16 -17 -16 -15 -15 -15 -15 -15 -14 -14 -13 -13 -13 -12 -12 -12 -11 -11 -10 -10 -10 -10 -10 -9 -9 -9 -9 -9 -9 -9 -9 -9 -9 -9 -9 -9 -9
-18 -18 -18 -18 -18 -17 -17 -16 -17 -16 -16 -15 -15 -15 -15 -14 -13 -13 -13 -13 -12 -12 -12 -11 -11 -11 -10 -10 -10 -10 -10 -10 -9 -9 -9 -9 -9 -9 -9 -9 -9 -9 -10
-20 -19 -19 -19 -19 -18 -18 -17 -16 -17 -16 -16 -15 -15 -15 -14 -13 -13 -13 -13 -12 -12 -12 -12 -12 -11 -10 -10 -10 -10 -10 -10 -10 -9 -9 -9 -9 -10 -10 -10 -9 -9 -10
-21 -21 -20 -20 -20 -19 -19 -19 -18 -16 -16 -16 -16 -16 -15 -15 -14 -13 -13 -13 -13 -12 -12 -12 -12 -11 -10 -10 -10 -10 -10 -10 -9 -9 -9 -9 -9 -10 -11 -10 -10 -10 -10
-24 -22 -21 -20 -21 -20 -20 -19 -19 -18 -17 -16 -16 -16 -15 -15 -15 -14 -14 -13 -13 -13 -12 -12 -12 -12 -11 -11 -11 -10 -10 -10 -10 -10 -9 -9 -9 -9 -10 -10 -10 -10 -10
-28 -26 -24 -22 -21 -21 -21 -20 -20 -19 -18 -17 -17 -16 -16 -15 -15 -15 -14 -14 -13 -13 -12 -12 -12 -12 -11 -10 -11 -11 -10 -10 -10 -10 -10 -10 -10 -10 -10 -10 -10 -10 -10
-30 -29 -28 -25 -23 -22 -22 -21 -20 -20 -19 -18 -17 -17 -17 -16 -15 -15 -14 -14 -14 -13 -13 -13 -12 -12 -12 -12 -11 -11 -10 -10 -10 -10 -10 -10 -10 -10 -10 -10 -10 -10 -10
-30 -29 -28 -28 -26 -23 -22 -22 -21 -21 -20 -19 -18 -17 -17 -17 -16 -15 -15 -14 -14 -14 -13 -13 -12 -12 -12 -12 -11 -11 -10 -10 -10 -10 -10 -10 -10 -10 -10 -10 -10 -10 -10
-30 -30 -29 -28 -28 -26 -24 -23 -22 -21 -21 -20 -20 -18 -17 -17 -17 -16 -15 -15 -15 -14 -14 -13 -13 -13 -12 -12 -11 -11 -11 -11 -11 -10 -11 -11 -10 -10 -10 -10 -10 -10 -10
-30 -30 -29 -29 -28 -28 -26 -24 -23 -22 -22 -21 -20 -19 -18 -17 -17 -17 -16 -15 -15 -15 -15 -14 -14 -13 -13 -13 -12 -11 -11 -12 -12 -11 -10 -11 -11 -10 -10 -10 -10 -10 -10
-30 -30 -29 -29 -29 -28 -28 -26 -24 -23 -22 -21 -21 -20 -19 -18 -18 -17 -17 -16 -15 -15 -15 -14 -14 -14 -13 -12 -13 -12 -11 -11 -11 -11 -11 -11 -11 -11 -10 -10 -10 -10 -10
-31 -30 -30 -29 -29 -28 -28 -28 -26 -24 -23 -22 -22 -21 -20 -19 -18 -18 -17 -16 -16 -15 -15 -15 -15 -14 -14 -13 -13 -13 -12 -12 -11 -11 -11 -11 -11 -11 -11 -10 -10 -10 -11
-30 -30 -30 -30 -29 -29 -28 -28 -28 -26 -24 -23 -22 -22 -21 -20 -19 -18 -18 -17 -16 -16 -15 -15 -15 -14 -14 -14 -13 -13 -11 -12 -12 -12 -12 -12 -12 -11 -11 -11 -11 -10 -11
-32 -30 -30 -30 -29 -29 -29 -28 -28 -27 -25 -24 -23 -22 -21 -21 -20 -19 -19 -18 -17 -16 -16 -16 -15 -15 -14 -15 -14 -14 -13 -13 -12 -11 -12 -11 -11 -11 -11 -11 -10 -11 -11
-33 -31 -30 -30 -30 -29 -29 -28 -28 -28 -27 -25 -24 -23 -22 -21 -20 -20 -19 -19 -18 -17 -16 -16 -16 -15 -15 -15 -14 -13 -13 -13 -13 -12 -12 -12 -12 -12 -12 -11 -11 -11 -11
-33 -33 -30 -30 -30 -29 -29 -28 -28 -28 -27 -26 -24 -23 -23 -22 -21 -20 -19 -19 -19 -18 -17 -16 -16 -16 -15 -15 -14 -14 -14 -13 -13 -13 -12 -12 -12 -12 -12 -12 -12 -11 -11
-33 -33 -31 -30 -30 -29 -29 -28 -28 -28 -27 -26 -25 -24 -23 -22 -22 -21 -20 -20 -19 -19 -18 -17 -17 -16 -15 -15 -15 -15 -14 -14 -13 -13 -13 -12 -12 -12 -12 -12 -12 -12 -12
-32 -33 -32 -30 -29 -29 -29 -28 -28 -27 -27 -27 -26 -25 -24 -23 -22 -21 -21 -20 -20 -19 -19 -18 -18 -17 -16 -15 -15 -16 -15 -13 -14 -13 -13 -13 -13 -12 -13 -12 -12 -12 -12
-32 -32 -32 -30 -29 -29 -28 -28 -28 -27 -27 -27 -26 -25 -25 -24 -23 -22 -21 -20 -20 -19 -19 -19 -18 -18 -17 -16 -16 -16 -16 -15 -14 -13 -13 -13 -13 -12 -13 -12 -12 -12 -12
-32 -32 -32 -32 -30 -28 -28 -28 -28 -28 -27 -27 -27 -25 -25 -25 -23 -22 -22 -21 -20 -20 -19 -19 -19 -19 -18 -17 -17 -17 -16 -17 -15 -13 -13 -13 -13 -13 -13 -12 -13 -12 -12
-31 -31 -32 -32 -31 -29 -28 -28 -28 -28 -27 -27 -27 -26 -25 -25 -25 -24 -22 -22 -21 -20 -20 -19 -19 -19 -18 -18 -18 -18 -17 -17 -16 -16 -14 -13 -13 -14 -13 -13 -13 -13 -13
-30 -31 -31 -31 -31 -29 -28 -28 -27 -27 -27 -27 -26 -26 -25 -24 -24 -24 -23 -22 -22 -21 -20 -20 -19 -19 -19 -19 -18 -18 -18 -17 -16 -16 -17 -16 -15 -14 -14 -13 -13 -13 -13
-29 -30 -30 -30 -31 -30 -29 -28 -27 -27 -27 -27 -26 -26 -25 -25 -24 -23 -23 -23 -22 -22 -21 -20 -20 -19 -19 -19 -19 -19 -19 -18 -18 -17 -16 -18 -17 -16 -15 -14 -13 -13 -13
-28 -28 -29 -30 -30 -30 -30 -29 -28 -27 -27 -27 -27 -26 -26 -26 -25 -24 -23 -23 -23 -22 -22 -21 -21 -20 -20 -20 -19 -19 -19 -19 -18 -18 -17 -17 -17 -18 -17 -16 -15 -14 -13
-27 -27 -28 -28 -29 -29 -29 -29 -29 -28 -27 -27 -27 -26 -26 -26 -25 -25 -24 -23 -22 -22 -22 -22 -21 -21 -20 -20 -20 -19 -19 -19 -19 -18 -18 -18 -18 -17 -18 -17 -18 -16 -16
-27 -27 -27 -27 -27 -28 -28 -29 -29 -28 -28 -27 -26 -26 -26 -26 -26 -25 -25 -25 -24 -23 -22 -21 -21 -21 -21 -20 -20 -20 -19 -19 -19 -19 -18 -18 -17 -17 -17 -16 -17 -17 -17